Lapse_Rate
6.1 6.2 7.0 7.3 7.0 6.9 6.8 6.8 6.6 6.7 6.8 6.8 7.1 7.3 7.2 7.3 7.2 7.2 7.2 6.9 6.9 6.5 7.4 6.9 6.7 5.9 6.7 6.2 6.2 6.5 6.6 7.0 7.3 7.2 7.2 8.0 8.8 8.5 9.1 9.0 7.6 7.7 7.9 8.6 9.2 9.0 9.3 8.2 7.8 8.1 8.3 8.0 8.6 8.7
7.2 7.5 7.4 7.2 7.0 6.9 6.9 6.7 6.7 6.8 7.0 7.1 7.2 7.4 7.5 7.3 7.4 7.4 7.3 7.0 6.9 6.4 7.5 7.1 6.7 6.4 6.8 6.8 5.9 6.4 6.6 6.7 6.7 6.9 6.7 7.2 7.8 7.3 8.5 8.2 7.9 8.4 8.7 9.2 8.4 8.8 7.8 7.9 7.8 8.0 8.7 7.7 7.2 8.1
7.5 7.3 7.2 7.1 7.1 7.0 6.8 6.8 6.9 7.0 7.2 7.3 7.4 7.3 7.4 7.4 7.4 7.3 7.3 7.1 6.8 6.7 7.3 7.3 7.3 7.0 6.8 6.7 6.6 6.4 6.5 6.3 6.1 6.0 6.4 6.5 6.5 7.4 7.6 6.9 8.0 7.5 7.6 7.7 7.9 7.4 7.6 7.5 7.5 8.0 8.4 6.9 6.7 6.6
7.2 7.3 7.2 7.1 6.9 6.8 6.9 7.0 7.1 7.1 7.2 7.2 7.2 7.2 7.2 7.1 7.1 7.1 6.9 6.8 6.6 6.5 6.5 7.1 6.9 6.6 6.6 6.9 6.9 7.3 6.2 6.3 6.3 6.2 6.2 6.4 6.8 6.9 7.0 7.3 7.2 7.0 7.3 6.8 6.2 7.2 6.8 6.6 6.8 6.6 6.6 6.2 5.7 6.0
6.9 6.9 6.8 6.7 6.8 6.7 6.9 7.0 6.9 6.9 6.9 6.8 6.9 6.9 6.9 7.0 6.9 6.7 6.7 6.5 6.3 6.2 6.7 7.6 7.4 7.2 7.3 7.2 7.2 6.7 6.8 6.4 6.1 6.1 5.8 6.1 6.5 6.0 6.6 7.1 7.6 7.4 6.8 7.0 6.8 6.7 6.8 6.7 6.4 5.8 6.2 6.7 6.3 6.5
6.8 6.7 6.6 6.6 6.6 6.8 6.7 6.7 6.7 6.7 6.6 6.7 6.8 6.9 6.9 6.9 6.8 6.5 6.4 6.4 6.8 6.5 6.3 7.0 7.0 7.0 7.3 7.1 6.8 6.8 6.4 5.9 6.0 5.9 5.9 5.8 6.2 5.9 6.6 6.2 6.3 6.8 7.2 6.9 5.9 6.7 6.7 6.5 6.4 6.5 6.6 6.6 6.7 6.7
6.9 6.8 6.7 6.6 6.5 6.6 6.6 6.7 6.7 6.8 6.8 6.9 6.9 6.9 6.9 6.8 6.6 6.6 6.3 6.6 6.7 6.5 6.4 6.6 7.0 7.1 7.3 6.9 6.6 6.4 6.3 5.6 5.5 5.8 5.7 5.7 5.2 5.3 6.1 6.0 6.1 5.9 6.1 6.5 6.4 6.3 6.6 6.2 6.3 5.3 6.0 5.9 6.1 6.7
6.8 6.7 6.5 6.4 6.4 6.5 6.5 6.7 6.9 7.0 6.9 7.0 7.1 7.0 6.9 6.8 6.5 6.9 6.9 6.8 6.7 6.3 6.1 6.3 6.9 6.9 6.9 6.5 6.4 6.2 5.9 5.9 5.6 5.0 5.5 5.6 5.0 5.7 5.6 5.6 6.2 6.1 6.0 6.3 6.3 6.0 6.1 6.0 5.0 5.3 4.4 5.1 6.1 5.9
6.8 6.7 6.6 6.6 6.7 6.7 6.9 7.0 7.0 6.9 6.9 6.9 6.7 6.8 6.9 7.0 6.6 6.7 6.8 6.2 6.0 6.0 5.8 5.7 6.5 6.6 6.9 6.5 6.3 5.9 5.6 5.5 5.6 5.6 5.5 5.2 4.9 5.1 5.1 5.3 5.9 5.8 5.9 5.8 5.2 5.3 5.2 5.1 4.2 4.1 5.1 5.4 5.5 5.5
6.9 6.8 6.9 7.0 7.1 7.1 7.0 6.9 6.9 6.8 6.6 6.6 6.4 6.6 6.8 6.9 6.9 6.7 6.7 6.2 6.1 6.3 6.3 6.6 6.8 6.7 6.5 6.3 6.0 5.7 5.6 5.7 5.9 5.7 5.4 4.9 4.8 4.6 4.9 5.1 5.4 5.6 5.2 4.9 4.6 4.2 4.8 4.6 4.2 4.8 5.0 4.8 5.9 6.2
6.9 6.9 7.0 7.1 7.1 6.9 6.7 6.7 6.7 6.7 6.7 6.7 6.8 7.0 7.2 7.2 7.1 6.8 6.7 6.6 6.3 6.2 6.7 7.1 7.3 7.2 6.8 6.4 6.3 6.3 6.2 6.1 5.9 5.7 5.2 5.1 4.9 4.9 5.3 5.2 5.4 5.0 4.9 4.6 4.3 4.3 4.3 4.4 4.5 5.3 5.5 5.9 6.3 6.9
6.7 6.6 6.8 7.1 7.1 7.1 7.2 7.3 7.3 7.2 7.1 6.9 7.0 7.1 7.2 7.3 7.2 7.1 6.7 6.7 6.5 6.4 6.8 7.1 7.0 7.1 7.1 6.9 7.0 7.2 6.9 6.8 6.1 5.9 5.7 5.2 5.0 4.9 5.2 5.2 5.2 4.8 5.4 5.6 5.6 5.8 6.3 6.4 6.2 6.3 6.4 6.7 6.8 6.9
6.6 6.9 7.3 7.3 7.4 7.5 7.6 7.3 7.4 7.4 7.4 7.2 7.0 6.8 6.8 7.0 6.9 6.8 6.7 6.6 6.6 6.3 6.6 7.2 7.1 7.3 7.1 7.1 7.1 7.1 7.0 6.3 6.3 5.9 5.6 5.4 5.5 5.4 5.5 5.4 5.7 6.0 6.4 6.9 6.8 6.7 6.8 6.6 6.4 6.3 6.4 6.4 6.3 6.2
6.9 7.1 7.3 7.3 7.4 7.4 7.2 7.1 7.3 7.4 7.4 7.0 6.9 6.8 6.8 6.7 6.7 6.9 6.8 6.6 6.4 6.3 6.6 7.1 7.3 7.2 7.5 7.1 7.2 7.0 7.2 7.1 6.5 5.9 5.8 5.6 5.5 5.4 5.4 5.6 6.3 6.5 6.5 6.6 6.4 6.1 6.2 6.2 6.2 6.1 5.9 5.9 5.9 5.9
6.9 6.8 6.9 7.2 7.4 7.4 7.4 7.0 6.8 6.6 7.1 6.6 6.5 6.6 6.9 6.9 6.8 6.8 7.1 7.3 6.7 6.7 6.4 7.0 7.1 7.3 7.1 6.8 6.9 6.9 7.1 6.4 6.4 6.2 5.8 5.4 5.4 5.7 6.0 6.0 5.8 5.8 6.0 6.1 6.0 6.0 6.0 5.8 5.7 5.7 5.7 5.5 5.6 5.6
6.9 7.0 7.2 7.2 7.1 6.9 7.1 7.1 7.1 7.1 6.8 6.2 6.2 6.6 6.8 6.8 6.7 6.8 7.2 7.3 7.3 7.4 7.5 7.3 7.0 7.0 7.0 6.3 6.6 6.5 6.4 6.4 6.4 6.4 6.2 5.9 6.1 6.0 6.0 5.9 6.0 6.0 5.9 5.9 5.8 5.7 5.6 5.5 5.6 5.7 5.7 5.6 5.7 5.7
7.3 7.3 7.2 7.2 7.2 7.1 7.0 7.0 7.5 7.1 6.6 6.5 6.5 6.3 6.3 6.4 6.7 6.9 7.1 7.1 7.2 7.2 7.4 7.1 6.7 6.7 6.7 6.4 6.3 6.3 6.3 6.3 6.3 6.2 6.3 6.1 6.1 6.1 6.2 6.2 6.2 6.3 6.2 6.1 5.9 5.9 5.7 5.6 5.6 5.6 5.6 5.8 5.7 5.7
7.5 7.4 7.4 7.3 7.2 7.0 6.9 7.0 7.0 6.5 6.2 6.1 6.3 6.7 6.8 6.4 6.8 6.9 7.0 7.0 7.1 7.4 7.6 7.1 6.6 6.6 6.5 6.5 6.3 6.1 6.3 6.4 6.3 6.3 6.3 6.3 6.2 6.1 6.1 6.2 6.3 6.2 6.0 5.9 5.8 5.6 5.4 5.3 5.2 5.2 5.4 5.6 5.5 5.3
7.5 7.4 7.3 7.2 7.2 7.1 7.0 6.8 6.8 6.3 6.3 6.5 6.5 6.5 6.8 6.9 7.1 7.3 7.3 7.2 7.5 7.5 7.6 6.8 6.6 6.3 6.3 6.3 6.3 6.4 6.5 6.5 6.5 6.4 6.4 6.4 6.3 6.4 6.5 6.3 6.1 6.1 6.0 5.7 5.6 5.5 5.5 5.5 5.4 5.3 5.2 5.2 5.2 5.2
7.4 7.5 7.4 7.2 7.0 7.1 6.9 6.8 6.8 6.5 6.4 6.3 6.4 6.5 6.8 6.8 6.9 7.0 7.1 7.3 7.5 7.7 7.0 6.2 6.4 6.4 6.3 6.2 6.5 6.5 6.6 6.6 6.6 6.5 6.5 6.5 6.4 6.4 6.1 5.9 5.8 5.7 5.6 5.5 5.6 5.5 5.5 5.4 5.4 5.4 5.3 5.3 5.2 5.3
7.2 7.3 7.3 7.2 7.1 7.0 6.9 6.8 6.8 6.7 6.6 6.5 6.5 6.6 6.6 6.7 6.9 6.9 7.0 6.7 7.3 6.7 6.5 6.5 6.2 6.1 6.1 6.1 6.2 6.4 6.5 6.5 6.5 6.3 6.3 6.3 6.3 6.2 6.1 5.9 5.9 5.9 5.9 5.7 5.6 5.6 5.6 5.6 5.7 5.7 5.6 5.6 5.6 5.5
7.0 7.1 7.2 7.2 7.2 7.0 6.8 6.8 6.8 6.8 6.7 6.6 6.6 6.7 6.6 6.5 6.5 6.4 6.3 6.6 6.3 6.3 6.4 6.4 6.3 6.3 6.2 6.2 6.2 6.3 6.2 6.3 6.3 6.3 6.2 6.2 6.4 6.1 6.0 6.1 6.1 5.9 5.8 5.8 5.7 5.7 5.7 5.8 5.8 5.7 5.6 5.8 5.8 5.8
7.0 7.0 7.1 7.1 6.8 6.7 6.7 6.8 6.9 6.8 6.6 6.4 6.5 6.3 6.4 6.5 6.6 6.5 6.5 6.4 6.4 6.4 6.4 6.4 6.6 6.4 6.3 6.3 6.4 6.4 6.3 6.2 6.2 6.2 6.2 6.2 6.2 6.2 6.1 6.1 6.0 5.9 5.8 5.9 5.8 5.9 5.8 5.9 5.9 6.0 6.0 6.0 6.0 6.0
7.3 7.1 6.7 6.4 6.3 6.5 6.7 6.8 6.9 6.6 6.5 6.6 6.5 6.5 6.5 6.6 6.7 6.7 6.6 6.6 6.4 6.3 6.3 6.3 6.3 6.4 6.5 6.5 6.5 6.5 6.5 6.4 6.4 6.5 6.5 6.4 6.4 6.5 6.3 6.2 6.1 6.1 6.1 5.9 5.9 5.9 5.9 5.9 5.9 5.8 5.9 5.9 5.8 5.8
7.2 6.9 6.8 6.8 6.8 6.9 6.9 6.8 6.9 6.9 6.7 6.8 6.8 6.8 6.8 6.7 6.6 6.7 6.6 6.5 6.4 6.4 6.5 6.4 6.5 6.4 6.4 6.4 6.5 6.5 6.5 6.5 6.4 6.3 6.4 6.3 6.2 5.5 5.4 5.7 5.5 5.7 6.1 5.9 5.7 5.7 5.5 5.6 5.5 5.6 5.6 5.4 5.6 5.5
6.7 6.7 6.7 6.8 6.8 6.9 7.0 7.1 7.2 7.2 7.2 7.0 6.9 6.9 7.0 6.8 6.7 6.6 6.7 6.5 6.5 6.4 6.4 6.4 6.3 6.3 6.3 6.4 6.3 6.3 6.5 6.6 6.7 6.5 6.5 6.5 6.4 6.2 5.9 5.7 5.1 4.7 5.1 5.2 5.3 5.3 5.2 4.9 4.7 4.5 4.4 4.3 4.4 4.7
6.6 6.8 6.9 7.0 7.0 7.1 7.1 7.1 7.1 7.1 7.0 7.0 7.0 6.9 6.8 6.5 6.6 6.6 6.5 6.2 6.2 6.2 6.3 6.3 6.3 6.3 6.2 6.2 6.3 6.3 6.2 6.2 6.3 6.1 5.9 5.9 5.8 5.9 5.7 5.6 5.4 5.4 5.4 5.2 5.2 5.1 4.9 4.2 3.9 3.9 3.9 3.9 3.9 3.8
6.9 7.1 7.2 7.2 7.2 7.2 7.1 7.0 7.0 6.8 6.7 6.8 6.7 6.5 6.4 6.5 6.3 6.4 6.4 6.5 6.4 6.4 6.1 5.9 6.0 6.3 6.2 6.2 6.3 6.4 6.3 6.1 6.0 5.9 5.7 5.0 5.0 5.1 5.3 5.0 4.9 5.0 5.0 4.9 5.2 5.0 5.0 4.4 3.8 3.8 3.7 3.7 3.7 3.6
6.8 7.0 7.2 7.2 7.1 7.1 6.9 6.7 6.5 6.4 6.4 6.4 6.3 6.0 6.2 6.2 6.3 6.3 6.2 6.1 6.1 6.1 6.0 5.9 6.2 6.2 5.9 5.5 5.7 5.9 6.0 5.8 5.9 5.9 5.8 5.7 5.7 5.6 5.4 5.3 5.3 5.2 5.2 5.0 4.0 4.1 4.6 4.6 4.4 4.5 4.3 3.8 3.3 3.1
7.2 7.1 7.2 7.2 7.0 6.9 7.0 6.9 6.8 6.9 6.7 6.5 6.5 6.4 6.4 6.2 6.3 6.5 6.1 5.9 5.9 5.8 5.9 5.9 5.9 5.6 5.8 5.9 5.9 5.8 5.9 5.8 5.7 5.6 5.4 5.3 5.2 5.2 5.3 5.3 5.3 5.1 5.0 4.8 4.8 4.6 4.3 5.0 4.4 3.3 3.2 3.2 3.2 3.2
7.2 7.2 7.2 7.1 7.1 6.9 6.9 6.9 6.7 6.6 6.3 6.6 6.4 6.3 6.2 6.2 6.0 5.9 5.6 5.7 5.8 5.7 5.6 5.5 5.6 5.9 5.8 5.8 5.9 5.8 5.5 5.6 5.5 5.4 5.3 5.2 5.1 5.1 5.0 5.0 5.1 5.2 5.3 5.3 5.3 5.1 4.9 4.8 4.2 3.6 3.6 3.6 3.7 3.9
7.0 6.9 6.9 6.8 7.0 6.9 6.8 6.4 6.1 6.2 6.1 6.1 6.2 6.2 6.2 6.0 5.7 5.8 5.8 5.7 5.5 5.5 5.7 5.8 5.9 5.9 5.8 5.7 5.7 5.6 5.5 5.5 5.4 5.3 5.4 5.5 5.5 5.5 5.5 5.5 5.4 5.4 5.3 5.2 5.1 4.9 4.6 4.4 3.8 4.3 4.2 3.9 3.7 3.5
6.5 6.4 6.3 6.2 6.3 6.4 6.5 6.4 6.3 6.2 6.2 6.1 6.1 6.1 6.0 5.9 5.8 5.8 5.8 5.7 5.6 5.5 5.6 5.6 5.6 5.7 5.8 5.7 5.6 5.6 5.7 5.6 5.8 5.8 5.6 5.6 5.6 5.6 5.6 5.6 5.5 5.4 5.3 5.2 5.1 4.5 4.0 4.0 4.3 4.1 3.8 3.9 3.7 3.7
Wind_Speed
28 29 29 28 28 26 24 21 20 19 18 17 16 13 13 11 10 8 3 10 6 3 12 23 23 18 11 8 4 9 7 2 4 5 6 8 12 8 17 20 22 20 16 13 12 13 16 6 4 5 6 12 12 11
28 29 29 28 27 25 21 20 19 18 14 13 7 9 10 8 5 5 3 5 8 5 6 20 21 21 20 22 15 7 11 7 3 3 3 4 6 5 12 13 7 18 16 12 6 4 6 4 2 2 3 6 10 0
28 29 29 27 23 20 19 17 12 13 11 9 6 8 7 5 5 8 3 1 2 3 9 17 16 15 22 23 17 9 7 2 4 5 3 3 6 4 5 5 13 3 8 4 10 5 8 11 11 10 14 7 4 9
25 26 22 17 15 14 13 12 12 10 4 4 7 8 8 5 7 9 5 5 4 3 5 5 3 6 6 13 22 24 15 3 3 3 3 3 4 6 4 4 4 5 5 11 13 12 13 11 12 12 12 11 10 15
21 19 20 17 15 13 13 10 7 5 6 6 7 7 3 6 8 8 6 7 8 4 6 11 21 7 2 16 14 18 17 11 2 3 2 2 4 5 1 3 3 6 4 5 8 12 12 10 10 8 10 9 10 15
20 18 14 16 18 16 12 8 8 9 8 7 8 10 6 4 5 5 3 4 6 5 3 4 7 5 4 7 14 15 10 10 3 3 2 1 6 5 1 2 8 9 6 5 7 11 17 14 10 7 5 6 10 15
15 15 13 15 16 14 13 11 11 10 9 9 9 8 8 5 4 4 4 3 4 1 2 3 4 1 7 13 8 10 8 4 5 2 3 2 3 4 3 3 11 5 7 7 14 17 15 13 8 11 4 5 10 12
15 14 14 15 15 13 13 14 11 12 11 11 12 12 10 9 8 4 2 7 6 2 2 3 4 4 10 10 8 5 4 2 4 4 1 3 4 2 4 7 8 10 16 17 16 17 15 12 7 7 3 2 11 8
15 15 15 15 13 15 13 14 14 16 16 16 15 15 4 4 2 1 3 9 7 1 2 2 3 3 2 7 7 2 4 5 3 2 1 2 3 4 5 8 11 12 10 13 15 13 11 11 8 5 3 5 9 6
16 16 15 14 14 14 14 16 19 22 17 11 6 3 2 2 5 4 3 3 4 4 1 3 4 3 4 7 3 4 5 1 0 1 3 3 3 10 10 11 9 8 12 11 15 8 10 7 6 3 6 5 6 6
16 16 15 14 13 13 14 16 20 25 8 4 4 3 6 5 3 3 2 3 3 3 3 4 5 6 1 2 4 7 4 6 2 2 1 3 5 7 10 10 9 5 11 11 11 14 11 8 6 3 6 4 6 7
16 15 15 14 15 16 17 17 16 10 5 6 4 5 4 3 2 4 2 1 3 3 3 5 7 6 4 2 4 4 3 2 4 4 3 3 3 8 8 5 2 6 10 11 11 9 7 7 7 6 7 7 8 9
16 16 16 16 18 23 22 21 18 14 11 2 2 3 4 3 3 7 7 2 3 5 4 6 7 4 3 3 3 2 3 3 4 4 3 3 3 5 7 3 7 8 9 9 10 10 10 10 10 10 9 9 9 9
18 18 19 20 21 27 25 21 13 6 2 3 5 6 5 4 5 3 7 5 4 5 7 8 5 4 3 2 4 4 5 3 5 4 4 4 7 4 3 3 8 9 9 10 11 10 11 10 10 10 10 8 9 10
21 20 18 17 30 27 23 13 6 2 3 3 3 4 4 5 7 6 5 5 4 5 4 6 4 2 5 5 5 4 4 5 5 3 2 4 4 3 7 7 7 7 7 9 9 10 11 10 9 10 10 9 9 9
24 17 7 29 30 29 15 8 1 1 2 1 2 4 8 6 10 11 9 8 7 6 4 3 3 3 7 4 4 8 4 5 3 3 4 3 4 6 7 7 7 6 8 8 8 8 8 7 7 6 7 7 8 8
19 5 21 27 31 25 9 4 2 4 5 5 4 5 7 6 9 10 10 10 9 5 4 3 5 5 2 5 5 4 3 3 5 5 5 6 7 7 7 7 7 7 8 8 7 7 6 5 5 6 5 4 5 5
5 17 21 24 24 8 3 4 3 3 5 5 6 9 9 7 9 10 9 9 7 6 6 4 4 8 5 4 3 1 2 4 2 3 6 6 5 5 6 6 6 6 6 6 6 5 4 6 5 6 5 4 3 2
15 19 18 23 10 4 4 4 4 4 5 4 6 8 7 8 9 8 8 8 4 3 1 3 5 6 5 5 7 7 6 5 3 4 4 4 6 7 6 6 5 7 8 8 8 7 5 5 5 5 5 5 6 4
20 12 20 16 10 3 2 3 3 3 5 5 6 8 5 8 8 8 10 10 9 8 8 6 5 6 7 5 5 5 5 5 3 3 4 5 5 6 9 7 7 6 5 5 6 8 6 6 7 6 7 6 6 7
10 9 14 6 3 4 3 4 2 3 4 4 7 5 5 6 9 11 10 8 9 8 7 8 8 6 6 4 4 5 5 5 5 4 4 4 6 5 7 6 7 7 7 7 7 7 8 8 8 8 8 7 8 7
4 13 4 4 3 2 3 4 4 4 3 4 5 5 5 7 7 6 6 6 3 3 3 4 4 5 6 9 7 7 7 7 7 5 2 0 3 5 5 5 5 6 6 7 7 8 8 8 8 9 8 8 8 7
8 3 2 3 3 4 2 4 3 5 4 4 4 4 4 4 4 3 2 2 2 2 2 3 6 6 11 11 14 15 13 10 7 8 7 6 6 4 4 5 5 5 6 6 7 8 8 7 7 8 8 8 8 7
3 3 4 4 5 4 3 4 3 3 2 3 3 2 3 4 5 3 4 5 5 4 7 9 5 7 8 12 12 12 12 11 9 8 9 7 5 5 4 4 4 5 6 7 7 7 7 7 6 7 8 9 9 8
2 5 3 5 2 4 4 4 4 3 3 4 2 2 3 3 2 3 3 5 7 7 6 7 9 10 10 10 10 11 14 11 10 9 8 8 7 5 3 4 4 4 7 9 9 9 9 8 7 8 9 9 10 11
3 3 3 4 2 4 5 5 6 5 4 4 3 3 2 3 3 4 3 8 7 9 9 9 9 9 10 10 9 10 11 10 10 9 9 9 9 9 9 9 9 8 10 10 9 11 10 9 9 11 10 10 7 9
3 4 2 1 2 1 1 1 0 2 3 4 3 3 3 3 6 5 5 6 5 7 8 8 8 9 9 9 9 9 9 10 10 8 5 4 5 6 7 9 10 9 10 10 10 11 11 10 10 9 9 10 11 11
2 1 3 2 1 1 3 3 3 3 3 2 2 5 4 4 4 2 2 4 4 4 4 8 9 9 9 8 7 8 9 10 11 11 9 8 9 10 12 10 10 9 10 8 8 10 11 11 10 11 11 11 10 10
1 1 1 2 1 1 1 3 5 4 4 3 2 3 3 2 5 4 5 7 10 10 10 9 8 8 8 8 9 8 9 10 13 16 15 10 9 9 10 11 11 10 10 11 8 7 7 8 8 9 11 10 10 9
3 1 3 3 3 3 4 5 7 7 8 7 4 9 9 8 7 6 5 4 3 3 2 4 6 9 10 10 10 11 9 9 10 11 11 11 11 10 10 11 11 11 10 11 11 12 7 11 10 8 9 10 10 10
3 2 3 2 3 4 8 8 9 9 6 5 5 5 3 3 3 3 3 3 2 5 7 8 8 10 10 10 9 9 8 9 12 14 13 11 11 12 12 11 11 10 11 12 11 11 11 10 10 11 11 12 13 11
4 4 5 4 3 5 6 4 3 3 1 1 3 3 2 3 2 3 4 6 7 7 6 7 8 8 9 8 7 6 5 7 8 10 14 11 11 12 11 10 10 10 10 10 10 10 11 12 11 12 11 11 11 11
3 5 4 3 3 4 5 5 3 3 2 2 2 1 1 3 5 4 2 5 6 7 7 7 7 7 8 9 10 8 8 8 9 8 7 8 11 11 9 9 10 11 13 10 10 11 12 14 11 12 12 12 11 11
Wind_Direction
313 311 309 307 305 303 301 304 301 295 292 291 282 276 280 272 254 189 226 202 212 246 270 278 276 267 249 266 288 341 308 178 273 246 225 229 243 223 215 180 186 195 197 210 228 216 226 5 209 236 354 326 312 276
318 318 316 310 307 306 298 295 297 292 286 299 279 288 284 263 226 187 242 206 219 235 272 299 281 264 257 258 259 259 297 330 283 306 343 316 270 258 216 187 166 197 209 210 241 190 86 77 83 50 29 360 349 77
318 320 318 315 313 310 299 300 307 308 298 297 282 297 292 219 228 223 239 128 199 261 272 253 258 251 230 233 230 237 233 223 250 346 310 291 278 324 240 258 152 101 127 148 167 126 94 101 82 62 70 71 55 58
326 332 344 353 359 350 346 330 316 316 312 303 304 299 280 281 245 243 232 220 234 276 284 307 328 261 233 218 212 217 235 80 320 299 258 269 278 343 350 355 6 1 300 146 102 127 110 79 69 72 76 71 74 79
335 341 349 354 346 346 347 3 17 7 332 313 311 321 357 356 315 276 257 243 222 245 302 305 299 261 234 213 202 205 218 217 311 307 253 281 306 309 87 130 49 343 343 210 163 148 115 89 59 41 63 77 70 71
340 345 357 3 359 352 355 356 357 354 340 322 317 318 327 317 261 265 246 32 290 243 274 300 338 289 316 171 189 189 195 192 236 288 301 235 274 284 280 102 9 336 268 257 114 110 98 95 52 38 63 66 66 72
359 358 359 354 351 358 5 1 350 342 334 323 318 312 305 315 265 273 342 3 111 170 239 266 290 65 103 119 131 144 143 197 227 263 245 250 253 264 57 47 339 8 58 109 115 117 83 61 59 314 42 96 87 83
2 358 350 347 347 351 348 342 345 337 325 313 302 296 291 274 269 278 261 201 162 226 264 289 278 239 186 150 128 145 157 198 223 246 135 263 270 75 64 28 23 89 79 62 62 77 91 99 75 358 279 177 82 58
357 349 341 341 354 352 357 357 346 329 314 303 298 294 259 217 234 206 256 196 177 93 286 257 287 71 317 81 107 137 183 213 186 153 289 349 355 53 49 40 33 63 83 95 68 53 70 95 146 222 63 38 86 97
2 357 2 358 1 359 2 351 339 332 321 301 278 260 244 102 5 137 212 198 186 194 263 258 303 317 349 124 96 184 211 167 93 151 117 17 72 50 44 40 30 73 92 77 77 69 55 346 19 46 65 48 57 64
4 4 4 4 3 353 343 341 343 331 279 354 347 312 334 324 236 210 268 242 143 215 210 251 289 326 115 213 170 209 165 172 109 155 345 51 23 62 53 29 8 54 129 144 155 160 165 180 173 131 91 78 74 77
349 347 349 352 348 338 331 329 332 336 329 315 293 289 275 268 265 272 249 235 292 36 337 301 325 310 299 274 246 158 229 168 93 117 65 65 10 40 87 85 43 72 83 101 105 103 112 108 104 88 78 69 66 57
326 329 333 331 340 337 331 328 324 313 301 249 243 306 328 350 341 1 11 18 344 342 352 320 318 335 259 222 253 332 74 91 145 48 65 70 101 48 41 8 93 89 90 86 90 96 93 81 65 60 68 68 63 64
330 322 311 317 322 335 335 331 326 323 305 17 9 12 10 354 350 339 342 331 309 315 312 309 298 351 338 15 357 16 44 34 66 59 49 70 60 15 77 33 71 77 79 84 83 78 72 66 69 60 63 60 61 53
324 318 313 316 333 338 340 345 359 354 27 52 33 20 342 295 280 307 323 300 314 280 288 289 261 320 19 51 350 359 50 67 37 54 68 87 74 37 70 60 64 64 67 67 68 68 65 57 64 66 57 56 55 55
333 315 331 333 334 337 333 314 307 327 93 90 89 358 346 348 357 1 3 357 359 328 271 249 352 27 37 5 33 26 43 42 74 75 78 96 70 63 65 63 60 48 55 56 54 49 53 43 48 54 65 54 58 50
322 346 340 331 330 325 322 309 329 16 5 23 11 11 355 348 351 353 352 355 333 322 15 6 40 27 352 29 38 18 43 63 75 93 87 60 51 45 34 37 35 36 34 30 31 40 32 27 41 48 36 54 50 52
317 330 337 332 331 320 335 359 351 12 25 24 356 354 342 343 348 358 350 353 357 14 26 47 1 27 48 42 46 346 18 62 43 46 57 55 38 26 17 16 15 15 17 11 11 355 354 3 347 43 36 33 264 79
312 315 326 331 333 313 349 32 348 17 19 3 344 351 346 353 12 352 11 13 26 339 22 36 57 42 53 41 33 36 35 38 39 51 60 34 15 8 350 359 360 13 15 27 13 356 350 1 2 2 4 10 5 21
306 304 346 329 323 323 7 36 321 348 8 347 343 348 352 4 358 12 30 19 39 41 37 46 53 45 45 28 358 18 15 16 356 119 90 35 4 360 18 1 11 0 33 43 65 12 33 37 28 18 17 348 333 352
302 357 329 330 18 28 44 352 35 13 328 335 354 356 4 9 24 29 23 26 58 40 53 35 28 17 351 338 337 340 16 21 30 32 31 16 11 6 30 37 41 38 36 33 27 32 26 24 13 3 359 6 354 355
339 334 312 345 10 26 61 25 338 335 309 343 360 360 20 21 14 15 337 22 42 25 15 11 3 345 354 17 17 30 14 21 18 13 281 106 359 13 14 28 33 43 38 23 12 8 4 5 356 340 336 345 321 329
306 298 332 349 4 42 4 343 11 14 12 16 2 29 12 354 338 313 56 359 4 346 342 11 19 63 54 40 43 36 29 29 25 21 12 27 40 51 60 46 37 22 12 17 356 356 348 341 353 338 334 331 335 330
226 358 7 17 10 17 331 23 11 4 45 27 18 13 333 336 327 36 39 19 26 32 52 53 40 69 68 54 49 37 18 12 14 37 8 1 32 42 23 22 26 32 3 349 354 348 345 346 327 342 345 334 331 331
0 6 14 1 355 337 12 13 16 20 33 28 34 54 23 334 43 64 42 9 38 58 61 69 60 44 41 37 31 27 19 10 359 360 23 354 343 321 352 349 356 33 5 351 349 343 340 337 337 345 335 343 342 328
64 45 19 12 26 346 1 352 14 6 346 357 26 352 317 319 58 57 53 358 25 37 37 32 33 45 41 28 19 13 6 2 357 358 13 357 7 357 352 345 345 350 12 342 336 331 327 331 330 332 328 332 323 302
44 37 68 63 328 316 258 291 294 323 347 359 355 337 334 41 48 19 348 21 41 29 29 30 35 36 33 26 19 13 7 357 6 355 352 356 14 25 6 347 342 0 332 323 330 330 321 315 319 327 326 333 331 343
11 325 337 30 291 279 336 352 357 360 355 19 281 29 44 29 47 59 34 357 341 302 21 32 30 27 23 19 17 13 12 5 1 1 352 6 15 14 5 345 350 336 321 358 352 335 349 338 342 341 344 337 338 346
289 18 274 308 151 161 359 3 9 23 349 313 32 74 96 66 66 55 41 47 33 28 23 16 8 8 14 12 15 22 28 10 5 7 5 6 5 6 358 353 350 350 354 349 66 40 23 352 342 343 335 327 327 326
40 342 293 311 5 69 35 25 66 53 45 67 96 112 100 83 48 36 58 71 71 79 28 29 23 10 9 9 9 13 46 24 22 14 358 358 356 353 351 351 350 349 349 345 342 340 358 346 321 313 337 339 336 348
333 292 279 290 58 86 106 96 79 66 70 54 42 95 107 160 178 103 57 26 357 33 15 16 24 24 10 17 19 11 17 29 18 12 8 348 352 353 345 346 349 347 349 346 343 343 348 340 337 342 345 345 349 343
340 354 348 24 94 141 157 152 87 108 133 129 147 186 216 232 99 92 7 354 13 17 41 19 24 27 21 21 28 36 343 13 24 11 13 4 360 354 349 1 357 358 354 352 354 354 356 355 357 1 354 349 345 345
324 20 44 83 133 175 200 194 134 108 116 256 98 121 71 20 62 48 83 37 20 18 26 31 33 40 35 28 20 10 6 16 95 90 56 24 359 346 349 11 2 3 355 359 357 352 3 4 359 352 349 349 344 344